Location: Camerons Lookout
(40.9833°S, 175.9333°E)
Time: 08:48:36
(UTC+00:00)

CZ-4C R/B - Pass Details

Date: 14 January 2026
Orbit: 482 x 1496 km, 63.4° (Epoch: 16 February)

Event Time Altitude Azimuth Distance (km) Brightness Sun altitude
Rises 10:22:20 0° 222° (SW) 3,356 6.8 -21.5°
Reaches altitude 10° 10:25:12 10° 230° (SW) 2,249 5.4 -21.8°
Maximum altitude 10:29:41 34° 293° (WNW) 1,035 2.7 -22.2°
Enters shadow 10:30:22 32° 313° (NW) 1,053 2.6 -22.3°
